Regional Weather Roundup
Issued by NWS

Home | Current Version | Previous Version | Graphics & Text | Print | Product List | Glossary On
Versions: 1 2 3 4 5 6 7 8 9 10 11 12 13 14 15 16 17 18 19 20 21 22 23 24 25 26 27 28 29 30 31 32 33 34 35 36 37 38 39 40 41 42 43 44 45 46 47 48 49 50
000
ASUS43 KFSD 281502
RWRSD

WEATHER ROUNDUP FOR SOUTH DAKOTA
NATIONAL WEATHER SERVICE SIOUX FALLS SD
1000 AM CDT TUE APR 28 2015

NOTE: "FAIR" INDICATES FEW OR NO CLOUDS BELOW 12,000 FEET WITH NO
SIGNIFICANT WEATHER AND/OR OBSTRUCTIONS TO VISIBILITY.


SDZ001>005-009-010-012>017-281600-
NORTHWEST AND NORTH CENTRAL SOUTH DAKOTA

CITY           SKY/WX    TMP DP  RH WIND       PRES   REMARKS
BUFFALO          N/A     47  37  68 SE5       30.26S
FAITH            N/A     49  36  61 N6        30.33S
MOBRIDGE       SUNNY     47  41  80 NW6       30.31S
$$

SDZ012>016-024>037-041>051-057-063-072>074-281600-
SOUTHWEST AND SOUTH CENTRAL SOUTH DAKOTA

CITY           SKY/WX    TMP DP  RH WIND       PRES   REMARKS
RAPID CTY ARPT SUNNY     47  39  74 VRB5      30.33F
PIERRE         CLOUDY    50  40  68 N10       30.32S
CUSTER         SUNNY     45  35  68 VRB3      30.30F
ELLSWORTH AFB  SUNNY     47  38  72 VRB6      30.32F
PHILIP         MOSUNNY   53  35  50 N10       30.34F
PINE RIDGE     MOSUNNY   51  39  63 CALM      30.33F
WINNER         FAIR      52  37  56 N12       30.32F
$$

SDZ004>011-016>023-039-040-281600-
NORTHEAST SOUTH DAKOTA

CITY           SKY/WX    TMP DP  RH WIND       PRES   REMARKS
ABERDEEN       MOSUNNY   54  42  64 N12       30.30F
WATERTOWN      CLOUDY    48  43  82 N15       30.26R
BROOKINGS      CLOUDY    52  45  76 N15       30.25R
SISSETON         N/A     49  44  83 N18       30.26F
$$

SDZ017-020-022-023-036>040-048>070-281600-
SOUTHEAST SOUTH DAKOTA

CITY           SKY/WX    TMP DP  RH WIND       PRES   REMARKS
SIOUX FALLS    CLOUDY    55  44  66 NW12      30.23S
HURON          CLOUDY    52  43  71 N14G23    30.28S
MITCHELL       PTSUNNY   53  45  74 N13       30.28F
YANKTON        MOSUNNY   52  43  71 NW15G24   30.25S
$$

ABBREVIATIONS USED IN REMARKS
   TC - TEMPERATURE IN CELSIUS
  WCI - WIND CHILL INDEX
   HX - HEAT INDEX
  VSB - VISIBILITY




USA.gov is the U.S. government's official web portal to all federal, state and local government web resources and services.